カタログに戻る

STARLINK-2232

運用中通信VLEO
NORAD 48578·PAYLOAD·🇺🇸 United States

打ち上げ May 15, 2021 から Cape Canaveral Space Force Station

Loading…

次のパス (今後24時間)

TLE

最新Source: CelesTrak SupGP

元期: Sep 15, 2026, 01:02 UTC

1 48578C 21041AB  26258.04354167  .00052778  00000+0  16969-2 0  2582
2 48578  53.1601 325.5365 0001064  87.6693 168.0900 15.31680913    11

AllMySatでSTARLINK-2232をリアルタイム追跡

Download on the App Store